[[{"header":{"parameterUnit":"m.s-1","parameterCategory":1,"la1":30.2991,"la2":30.254,"lo1":-89.0895,"lo2":-89.0444,"dy":0.0017,"dx":0.0017,"nx":28,"ny":28,"refTime":"2024-07-27T21:00:00:Z","depth":0,"parameterNumber":2,"parameterNumberName":"U-component_of_WINDS"},"data":[0,0,0,0,0,0,0,0,0,0,0,0,0,0,0,0,0,0,0,0,0,0,0,0,0,0,0,0,0,0,0,0,0,0,0,0,0,0,0,0,0,0,0,0,0,0,0,0,0,0,0,0,0,0,0,0,0,0,-0.2093,-0.2094,0,-0.2116,-0.2116,-0.2117,-0.2126,-0.2126,-0.2126,-0.2126,-0.215,-0.2151,-0.2152,0,0,0,0,0,0,0,0,0,0,0,0,0,-0.206,-0.2061,-0.2093,-0.2094,-0.2094,-0.2116,-0.2116,-0.2117,-0.2126,-0.2126,-0.2126,-0.2126,-0.215,-0.2151,-0.2152,0,0,0,0,0,0,0,0,0,0,0,0,0,-0.2078,-0.2061,-0.2093,-0.2101,-0.2102,-0.2116,-0.2116,-0.2117,-0.2126,-0.2126,-0.2126,-0.2126,-0.215,-0.2151,-0.2152,-0.2159,0,0,-0.2155,-0.2155,0,0,0,0,0,0,0,0,-0.2077,-0.2079,-0.21,-0.2101,-0.2102,-0.2118,-0.2114,-0.2131,-0.2126,-0.2117,-0.2126,-0.2126,-0.214,-0.2142,-0.2146,-0.216,-0.2161,-0.2155,-0.2156,-0.2156,-0.2156,0,0,0,0,0,0,0,-0.2076,-0.2078,-0.2102,-0.21,-0.2102,-0.2105,-0.2107,-0.2117,-0.2129,-0.2118,-0.2119,-0.2121,-0.214,-0.2145,-0.2147,-0.2162,-0.2155,-0.2156,-0.2157,-0.2157,-0.2185,-0.2185,0,0,0,0,0,0,-0.2073,-0.2077,-0.2102,-0.2103,-0.2089,-0.2105,-0.2108,-0.2113,-0.2129,-0.2131,-0.2121,-0.2122,-0.2143,-0.2145,-0.2148,-0.2158,-0.2156,-0.2157,-0.2158,-0.2185,-0.2185,-0.2185,0,0,0,0,0,0,-0.2072,-0.2075,-0.2101,-0.209,-0.2094,-0.2106,-0.2112,-0.2114,-0.2118,-0.2131,-0.2133,-0.2124,-0.2143,-0.2146,-0.2157,-0.2159,-0.2157,-0.2158,-0.2185,-0.2185,-0.2185,-0.2179,0,0,0,0,0,0,-0.2071,-0.2075,-0.2077,-0.209,-0.2094,-0.2109,-0.2112,-0.2114,-0.212,-0.2121,-0.2134,-0.2136,-0.2143,-0.2155,-0.2158,-0.2161,-0.2159,-0.2184,-0.2185,-0.2185,-0.2179,-0.2179,-0.2179,0,0,0,0,0,-0.207,-0.2075,-0.2077,-0.208,-0.2098,-0.2109,-0.2111,-0.2119,-0.212,-0.2123,-0.2131,-0.2136,-0.2158,-0.2156,-0.2159,-0.2162,-0.2184,-0.2185,-0.2185,-0.2179,-0.2179,-0.2179,0,0,0,0,0,0,-0.2062,-0.2076,-0.208,-0.2088,-0.2097,-0.2111,-0.2114,-0.2119,-0.2128,-0.2128,-0.2138,-0.2141,-0.2151,-0.2158,-0.2155,-0.2171,-0.2172,-0.2173,-0.2166,-0.2166,-0.2166,-0.2165,-0.216,0,0,0,0,0,-0.2061,-0.2068,-0.2081,-0.2087,-0.2092,-0.2102,-0.2107,-0.2113,-0.2123,-0.2127,-0.2136,-0.2146,-0.2155,-0.2161,-0.217,-0.218,-0.2184,-0.2184,-0.2184,-0.2184,-0.2185,-0.2192,-0.2192,-0.2186,-0.2186,-0.2186,0,0,-0.2059,-0.2068,-0.2072,-0.2086,-0.2093,-0.2102,-0.2105,-0.2114,-0.212,-0.2128,-0.2139,-0.2146,-0.2157,-0.2168,-0.2173,-0.2174,-0.2187,-0.2184,-0.2184,-0.2185,-0.2192,-0.2192,-0.2193,-0.2186,-0.2186,-0.2186,0,0,-0.206,-0.2067,-0.2074,-0.2082,-0.2093,-0.21,-0.2102,-0.2115,-0.212,-0.213,-0.2137,-0.2145,-0.2161,-0.2169,-0.2176,-0.2181,-0.2186,-0.2184,-0.2184,-0.219,-0.2191,-0.2191,-0.2194,-0.2195,-0.2185,-0.2185,-0.2185,0,-0.2056,-0.2068,-0.2077,-0.2085,-0.2091,-0.2099,-0.2107,-0.2114,-0.2128,-0.2132,-0.2133,-0.2154,-0.2162,-0.2175,-0.2177,-0.2181,-0.2184,-0.2183,-0.219,-0.2191,-0.2191,-0.2194,-0.2195,-0.2184,-0.2184,-0.2184,-0.2184,0,-0.2064,-0.2072,-0.2077,-0.209,-0.2097,-0.2105,-0.2115,-0.2121,-0.2126,-0.2134,-0.2145,-0.2156,-0.2168,-0.2171,-0.2176,-0.2185,-0.2186,-0.2188,-0.2189,-0.2191,-0.2194,-0.2196,-0.2184,-0.2184,-0.2184,-0.2184,0,0,-0.206,-0.2078,-0.208,-0.2087,-0.21,-0.2107,-0.2116,-0.2128,-0.2133,-0.2143,-0.2151,-0.2165,-0.2168,-0.2175,-0.2181,-0.2187,-0.2192,-0.2189,-0.2189,-0.219,-0.2204,-0.2203,-0.2204,-0.2195,-0.2195,-0.2195,-0.2203,0,-0.2063,-0.2078,-0.2087,-0.2099,-0.2108,-0.2116,-0.2123,-0.2133,-0.2141,-0.2149,-0.2158,-0.2168,-0.217,-0.2175,-0.2181,-0.219,-0.2195,-0.2189,-0.2204,-0.2204,-0.2201,-0.2205,-0.2203,-0.221,-0.2204,-0.2205,-0.2205,0,-0.2069,-0.2079,-0.2092,-0.2106,-0.211,-0.2116,-0.2129,-0.2137,-0.2148,-0.2154,-0.2162,-0.2168,-0.2179,-0.2179,-0.2194,-0.219,-0.2197,-0.2202,-0.2203,-0.2205,-0.2205,-0.2208,-0.2212,-0.2214,-0.2206,-0.2206,-0.2206,0,-0.2066,-0.2082,-0.2092,-0.2098,-0.2114,-0.2119,-0.2126,-0.2138,-0.2145,-0.2155,-0.216,-0.2172,-0.2179,-0.2188,-0.2198,-0.2197,-0.2213,-0.2213,-0.2218,-0.2218,-0.2221,-0.2221,-0.2227,-0.2224,-0.2224,-0.2224,-0.2224,0,-0.2069,-0.2077,-0.2091,-0.2098,-0.2107,-0.2117,-0.2126,-0.2134,-0.2145,-0.2153,-0.2161,-0.2169,-0.2181,-0.2191,-0.2199,-0.2211,-0.2214,-0.2219,-0.2221,-0.2219,-0.2218,-0.2223,-0.2223,-0.2224,-0.2224,-0.2224,-0.2224,0,-0.2067,-0.2077,-0.2088,-0.2103,-0.2107,-0.2114,-0.2126,-0.2133,-0.2142,-0.2153,-0.2156,-0.2169,-0.2181,-0.2192,-0.2208,-0.2213,-0.2226,-0.2228,-0.2222,-0.2223,-0.2227,-0.2227,-0.2238,-0.2241,-0.2235,-0.2235,-0.2235,0,-0.2068,-0.2075,-0.209,-0.2097,-0.2104,-0.2113,-0.2121,-0.2131,-0.2139,-0.2153,-0.2159,-0.2172,-0.2182,-0.2202,-0.2213,-0.2226,-0.2229,-0.2232,-0.2231,-0.2229,-0.223,-0.223,-0.2231,-0.2232,-0.2232,-0.2232,-0.2232,0,-0.207,-0.2075,-0.2085,-0.2097,-0.2106,-0.2116,-0.2126,-0.2131,-0.2144,-0.2152,-0.2165,-0.2173,-0.219,-0.2203,-0.2217,-0.2225,-0.2231,-0.2232,-0.2234,-0.2232,-0.2228,-0.2231,-0.2223,-0.2232,-0.2232,-0.2232,-0.2232,-0.2232,-0.2071,-0.2077,-0.2089,-0.2101,-0.211,-0.212,-0.2127,-0.2137,-0.2147,-0.2162,-0.2167,-0.2181,-0.2194,-0.2213,-0.2221,-0.2233,-0.2233,-0.2236,-0.2237,-0.2237,-0.2237,-0.2226,-0.2235,-0.2235,-0.2235,-0.2235,-0.2235,0,-0.2074,-0.2083,-0.2093,-0.2107,-0.2117,-0.2121,-0.2133,-0.2141,-0.2152,-0.2163,-0.2174,-0.2189,-0.2202,-0.2215,-0.2229,-0.2236,-0.2239,-0.2239,-0.2239,-0.2241,-0.2235,-0.2233,-0.2236,-0.2236,-0.2236,-0.2236,-0.2236,-0.2236,-0.2077,-0.2088,-0.2095,-0.2111,-0.212,-0.2133,-0.214,-0.2149,-0.2159,-0.2175,-0.2186,-0.2194,-0.2207,-0.2222,-0.2234,-0.2238,-0.2243,-0.2242,-0.2247,-0.2241,-0.2241,-0.2241,-0.2239,-0.2243,-0.2243,-0.2252,-0.2252,-0.2252]},{"header":{"parameterUnit":"m.s-1","parameterCategory":1,"la1":30.2991,"la2":30.254,"lo1":-89.0895,"lo2":-89.0444,"dy":0.0017,"dx":0.0017,"nx":28,"ny":28,"refTime":"2024-07-27T21:00:00:Z","depth":0,"parameterNumber":3,"parameterNumberName":"V-component_of_WINDS"},"data":[0,0,0,0,0,0,0,0,0,0,0,0,0,0,0,0,0,0,0,0,0,0,0,0,0,0,0,0,0,0,0,0,0,0,0,0,0,0,0,0,0,0,0,0,0,0,0,0,0,0,0,0,0,0,0,0,0,0,3.8743,3.8744,0,3.8833,3.8834,3.8835,3.8787,3.8784,3.8782,3.8779,3.887,3.8875,3.8879,0,0,0,0,0,0,0,0,0,0,0,0,0,3.8529,3.8533,3.8743,3.8744,3.8745,3.8833,3.8834,3.8835,3.8787,3.8784,3.8781,3.8778,3.8868,3.8874,3.888,0,0,0,0,0,0,0,0,0,0,0,0,0,3.862,3.8534,3.8743,3.8732,3.8732,3.8832,3.8834,3.8835,3.8788,3.8784,3.878,3.8777,3.8867,3.8873,3.888,3.8997,0,0,3.8902,3.8905,0,0,0,0,0,0,0,0,3.8615,3.8628,3.8732,3.8733,3.8733,3.8795,3.8791,3.8889,3.8789,3.8766,3.8779,3.8775,3.8848,3.8856,3.8881,3.9001,3.9005,3.8902,3.8907,3.891,3.8912,0,0,0,0,0,0,0,3.8609,3.8624,3.8778,3.8734,3.8734,3.8722,3.8731,3.881,3.8826,3.8768,3.8765,3.8776,3.8847,3.8874,3.8883,3.9006,3.8902,3.8908,3.8913,3.8916,3.9226,3.923,0,0,0,0,0,0,3.8603,3.8619,3.8776,3.8781,3.8664,3.8729,3.8739,3.8779,3.8825,3.8829,3.8779,3.8774,3.8864,3.8875,3.8886,3.9025,3.891,3.8916,3.892,3.9222,3.9227,3.9231,0,0,0,0,0,0,3.8599,3.8618,3.8772,3.8699,3.8718,3.8736,3.8781,3.8782,3.8809,3.8834,3.8836,3.8804,3.8862,3.8876,3.897,3.9027,3.8919,3.8926,3.9217,3.9223,3.9229,3.9304,0,0,0,0,0,0,3.8593,3.8617,3.8661,3.8701,3.8722,3.8855,3.8785,3.8787,3.8822,3.8815,3.8858,3.8861,3.886,3.8959,3.8977,3.9035,3.8931,3.9212,3.922,3.9227,3.9296,3.9312,3.9325,0,0,0,0,0,3.8586,3.8678,3.8664,3.8683,3.8778,3.8858,3.887,3.8867,3.8827,3.8871,3.8887,3.886,3.9018,3.8969,3.8988,3.905,3.9208,3.9218,3.9226,3.929,3.9309,3.9325,0,0,0,0,0,0,3.8644,3.8683,3.8667,3.8776,3.8814,3.885,3.8906,3.8887,3.8938,3.893,3.8923,3.8933,3.9031,3.905,3.8994,3.9165,3.9107,3.912,3.9149,3.9167,3.9181,3.9174,3.8937,0,0,0,0,0,3.867,3.8732,3.8763,3.8855,3.8875,3.8888,3.8922,3.8917,3.8956,3.8972,3.8995,3.9033,3.9092,3.913,3.9186,3.9299,3.9308,3.9351,3.9365,3.9377,3.9388,3.945,3.9469,3.9261,3.9261,3.9261,0,0,3.8723,3.8752,3.8792,3.8868,3.8897,3.8961,3.8902,3.8972,3.9019,3.8982,3.9072,3.9091,3.9133,3.9238,3.9285,3.9256,3.9448,3.9388,3.9398,3.9403,3.9461,3.9481,3.9498,3.9267,3.9266,3.9265,0,0,3.8853,3.8882,3.8962,3.8993,3.9038,3.9045,3.9065,3.9104,3.9115,3.9205,3.9179,3.9235,3.9336,3.9368,3.9397,3.954,3.9517,3.9558,3.9633,3.9693,3.9709,3.9724,3.9774,3.9793,3.957,3.957,3.957,0,3.8913,3.9009,3.9005,3.9078,3.9112,3.9083,3.9164,3.9194,3.9254,3.9279,3.9246,3.9373,3.9399,3.9511,3.9546,3.957,3.9592,3.9553,3.9707,3.9722,3.9735,3.9784,3.9803,3.9575,3.9574,3.9573,3.9573,0,3.9081,3.9148,3.9208,3.9268,3.9309,3.9385,3.9393,3.9435,3.9426,3.9437,3.953,3.9561,3.9622,3.9648,3.964,3.9759,3.974,3.9708,3.9649,3.976,3.9805,3.9824,3.9581,3.958,3.9578,3.9577,0,0,3.925,3.9307,3.9329,3.9356,3.9404,3.9456,3.9531,3.9592,3.9628,3.9671,3.9733,3.982,3.9791,3.9824,3.982,3.9872,3.9984,3.9834,3.9835,3.986,4.0116,4.0139,4.0161,3.9969,3.9972,3.9975,4.0112,0,3.9382,3.9514,3.9513,3.9636,3.9697,3.9671,3.9736,3.9773,3.9786,3.984,3.9853,3.9915,3.9872,3.9892,3.9943,3.9959,4.0035,3.9949,4.0027,4.0029,4.0016,4.0185,4.021,4.0337,4.013,4.0133,4.0135,0,3.9555,3.9604,3.9733,3.9772,3.9798,3.9857,3.9913,3.9965,4.0006,4.0011,4.0049,4.0037,4.0113,4.0053,4.0158,4.01,4.0132,4.0144,4.0149,4.0156,4.0088,4.0195,4.0378,4.0397,4.0163,4.0161,4.0159,0,3.9664,3.9763,3.9853,3.9877,3.9925,3.9967,3.9989,4.0027,4.0063,4.0112,4.0135,4.0192,4.0223,4.0267,4.027,4.0226,4.0376,4.0316,4.0382,4.0382,4.0414,4.0412,4.0604,4.0436,4.0435,4.0435,4.0435,0,3.9812,3.9891,3.9902,3.9958,4.0046,4.0044,4.0132,4.015,4.0183,4.0241,4.0222,4.0277,4.0278,4.0333,4.0336,4.0423,4.0437,4.0443,4.0443,4.0445,4.0444,4.0465,4.0456,4.044,4.0439,4.0438,4.0437,0,3.9948,3.9959,4.0055,4.0094,4.0105,4.0169,4.0201,4.0254,4.0265,4.0339,4.0356,4.0373,4.0438,4.0446,4.0521,4.0523,4.0627,4.0618,4.0614,4.0612,4.0677,4.0671,4.0889,4.0918,4.0731,4.0733,4.0735,0,4.0042,4.0102,4.0148,4.0186,4.021,4.0271,4.0309,4.031,4.0349,4.0401,4.0448,4.0511,4.0561,4.0666,4.0685,4.0743,4.0734,4.0807,4.0743,4.0743,4.0735,4.0731,4.0737,4.0819,4.0821,4.0823,4.0824,0,4.0206,4.0209,4.0264,4.0322,4.0367,4.0412,4.0454,4.0486,4.0492,4.0538,4.0605,4.0644,4.0722,4.0784,4.0842,4.0864,4.0845,4.0844,4.0862,4.0865,4.086,4.0863,4.0647,4.0839,4.0837,4.0836,4.0835,4.0835,4.0324,4.0377,4.0417,4.0479,4.0511,4.0552,4.0603,4.0621,4.0677,4.074,4.0738,4.0811,4.0851,4.0925,4.0952,4.1009,4.0985,4.1011,4.1018,4.1024,4.1031,4.0851,4.1019,4.1019,4.1019,4.1018,4.1018,0,4.0487,4.0512,4.0569,4.0629,4.0679,4.0658,4.0704,4.0746,4.0811,4.085,4.09,4.0977,4.1038,4.1063,4.1122,4.1163,4.1156,4.1179,4.1176,4.1181,4.1049,4.1027,4.1184,4.1184,4.1184,4.1184,4.1184,4.1184,4.0577,4.0666,4.0673,4.0777,4.0802,4.0874,4.0902,4.0939,4.097,4.1057,4.1108,4.1124,4.1157,4.1219,4.1274,4.128,4.1303,4.1329,4.1331,4.1207,4.119,4.1174,4.1154,4.1334,4.1334,4.1458,4.1459,4.146]}]]